Weather History for KTKC - April, 2013

Change the Weather History Date:

Saturday, April 6, 2013

  Actual Average (KMML) Record (KMML)
Temperature  
Mean Temperature 42 °F -  
Max Temperature 52 °F 52 °F 88 °F (1991)
Min Temperature 32 °F 30 °F 10 °F (1982)
Degree Days  
Heating Degree Days 23    
Moisture  
Dew Point 36 °F    
Average Humidity 77    
Maximum Humidity 93    
Minimum Humidity 65    
Precipitation  
Precipitation 0.02 in - - ()
Sea Level Pressure  
Sea Level Pressure 29.62 in    
Wind  
Wind Speed 13 mph (NW)    
Max Wind Speed 22 mph    
Max Gust Speed 28 mph    
Visibility 9 miles    
Events Rain    
Averages and records for this station are not official NWS values.
T = Trace of Precipitation, MM = Missing Value Source: NWS Daily Summary

Daily Weather History Graph

Daily Weather History Graph

Search for Another Location

Airport or City:

Trip Planner

Search our weather history database for the weather conditions in past years. The results will help you decide how hot, cold, wet, or windy it might be!

Date:

Astronomy

Apr. 06, 2013 Rise Set
Actual Time 6:54 AM CDT 7:56 PM CDT
Civil Twilight 6:24 AM CDT 8:25 PM CDT
Nautical Twilight 5:49 AM CDT 9:01 PM CDT
Astronomical Twilight 5:12 AM CDT 9:38 PM CDT
Moon 4:46 AM CDT (4/6) 4:18 PM CDT (4/6)
Length of Visible Light 14h 01m
Length of Day
13h 02m
Waning Crescent, 15% of the Moon is Illuminated
Apr 6
Waning Crescent
Apr 10
New
Apr 18
First Quarter
Apr 25
Full
May 2
Last Quarter

Hourly Weather History & Observations

Time (CDT) Temp. Windchill Dew Point Humidity Pressure Visibility Wind Dir Wind Speed Gust Speed Precip Events Conditions
12:17 AM 41.5 °F 34.2 °F 31.6 °F 68% 29.70 in 10.0 mi SE 13.8 mph - N/A   Mostly Cloudy
12:37 AM 41.9 °F 35.0 °F 31.6 °F 67% 29.69 in 10.0 mi SSE 12.7 mph 20.7 mph N/A   Mostly Cloudy
12:58 AM 42.1 °F 33.9 °F 31.6 °F 67% 29.67 in 10.0 mi SE 17.3 mph 23.0 mph N/A   Scattered Clouds
1:17 AM 42.3 °F 34.4 °F 31.8 °F 67% 29.66 in 10.0 mi SSE 16.1 mph - N/A   Mostly Cloudy
1:37 AM 42.1 °F 34.2 °F 32.0 °F 67% 29.65 in 10.0 mi SSE 16.1 mph 21.9 mph N/A   Overcast
1:57 AM 42.4 °F 35.3 °F 32.0 °F 67% 29.64 in 10.0 mi SSE 13.8 mph - N/A   Overcast
2:18 AM 43.0 °F 36.4 °F 32.9 °F 68% 29.63 in 10.0 mi SSE 12.7 mph 19.6 mph N/A   Overcast
2:38 AM 43.3 °F 36.8 °F 33.3 °F 68% 29.62 in 10.0 mi SSE 12.7 mph - N/A   Overcast
2:58 AM 43.7 °F 36.9 °F 33.8 °F 68% 29.60 in 10.0 mi SE 13.8 mph 19.6 mph N/A   Overcast
3:18 AM 43.9 °F 37.2 °F 34.3 °F 69% 29.58 in 10.0 mi SSE 13.8 mph 19.6 mph N/A   Overcast
3:37 AM 44.4 °F 37.9 °F 34.9 °F 69% 29.57 in 10.0 mi SSE 13.8 mph - N/A   Overcast
3:57 AM 45.1 °F 37.6 °F 35.6 °F 69% 29.55 in 10.0 mi SSE 18.4 mph 24.2 mph N/A   Overcast
4:17 AM 45.7 °F 38.6 °F 36.1 °F 69% 29.53 in 10.0 mi SSE 17.3 mph - N/A   Overcast
4:38 AM 46.2 °F 41.7 °F 36.5 °F 69% 29.56 in 10.0 mi South 9.2 mph 20.7 mph N/A   Overcast
4:57 AM 46.4 °F 42.4 °F 37.4 °F 71% 29.55 in 10.0 mi SSE 8.1 mph 19.6 mph N/A   Light Drizzle
5:17 AM 45.9 °F 41.7 °F 37.4 °F 72% 29.54 in 10.0 mi SSE 8.1 mph - N/A   Overcast
5:38 AM 45.9 °F 39.7 °F 37.6 °F 73% 29.53 in 10.0 mi South 13.8 mph - N/A   Overcast
5:58 AM 46.2 °F 40.5 °F 37.8 °F 72% 29.52 in 10.0 mi South 12.7 mph 19.6 mph N/A   Scattered Clouds
6:17 AM 46.6 °F - 37.9 °F 72% 29.52 in 10.0 mi South 11.5 mph 17.3 mph N/A   Mostly Cloudy
6:37 AM 46.6 °F - 38.1 °F 72% 29.51 in 10.0 mi South 10.4 mph - N/A   Mostly Cloudy
6:58 AM 46.4 °F 41.1 °F 38.1 °F 73% 29.51 in 10.0 mi South 11.5 mph - N/A   Scattered Clouds
7:18 AM 46.6 °F - 38.3 °F 73% 29.51 in 10.0 mi South 11.5 mph 16.1 mph N/A   Mostly Cloudy
7:37 AM 46.4 °F 42.9 °F 38.3 °F 73% 29.51 in 10.0 mi South 6.9 mph - N/A   Scattered Clouds
7:57 AM 46.4 °F 43.5 °F 38.5 °F 74% 29.51 in 10.0 mi SSE 5.8 mph - N/A   Clear
8:18 AM 46.6 °F - 38.8 °F 74% 29.50 in 10.0 mi South 8.1 mph - N/A   Scattered Clouds
8:38 AM 47.7 °F - 39.2 °F 72% 29.50 in 10.0 mi Calm Calm - N/A   Scattered Clouds
8:57 AM 49.1 °F - 39.9 °F 71% 29.49 in 10.0 mi South 3.5 mph - N/A   Scattered Clouds
9:17 AM 49.5 °F - 39.9 °F 70% 29.49 in 10.0 mi Calm Calm - N/A   Mostly Cloudy
9:37 AM 51.8 °F - 40.6 °F 66% 29.49 in 10.0 mi Calm Calm - N/A   Scattered Clouds
9:58 AM 52.3 °F - 41.0 °F 65% 29.48 in 10.0 mi Calm Calm - N/A   Mostly Cloudy
10:17 AM 51.8 °F - 41.2 °F 67% 29.49 in 10.0 mi NW 11.5 mph 17.3 mph N/A   Mostly Cloudy
10:37 AM 46.4 °F 39.8 °F 39.4 °F 77% 29.51 in 10.0 mi WNW 16.1 mph - N/A   Scattered Clouds
10:57 AM 43.5 °F 35.8 °F 36.9 °F 77% 29.53 in 10.0 mi NW 17.3 mph 21.9 mph N/A   Mostly Cloudy
11:18 AM 43.9 °F 36.5 °F 37.2 °F 77% 29.53 in 10.0 mi NNW 16.1 mph 21.9 mph N/A   Light Drizzle
11:38 AM 42.6 °F 34.9 °F 36.5 °F 79% 29.53 in 10.0 mi NNW 16.1 mph - N/A Rain Light Rain
11:58 AM 41.9 °F 34.0 °F 36.0 °F 79% 29.56 in 10.0 mi NW 16.1 mph - N/A   Mostly Cloudy
12:17 PM 41.2 °F 32.4 °F 37.2 °F 86% 29.57 in 5.0 mi NW 18.4 mph 21.9 mph N/A Rain Light Rain
12:38 PM 39.2 °F 30.2 °F 36.0 °F 88% 29.57 in 3.0 mi NW 17.3 mph 23.0 mph 0.02 in Rain Rain
12:57 PM 38.5 °F 28.1 °F 35.8 °F 90% 29.58 in 5.0 mi NW 21.9 mph - 0.02 in Rain Light Rain
1:17 PM 38.7 °F 30.1 °F 35.4 °F 88% 29.58 in 7.0 mi NNW 15.0 mph 23.0 mph N/A   Mostly Cloudy
1:37 PM 41.2 °F 31.6 °F 37.4 °F 86% 29.58 in 10.0 mi NNW 21.9 mph 27.6 mph N/A   Mostly Cloudy
1:58 PM 41.0 °F 32.2 °F 36.5 °F 84% 29.59 in 10.0 mi NNW 18.4 mph 27.6 mph N/A   Mostly Cloudy
2:17 PM 40.6 °F 32.0 °F 35.8 °F 83% 29.59 in 10.0 mi NW 17.3 mph 23.0 mph N/A   Overcast
2:37 PM 41.7 °F 33.1 °F 36.7 °F 82% 29.59 in 10.0 mi NNW 18.4 mph - N/A   Overcast
2:58 PM 43.3 °F 35.5 °F 37.6 °F 80% 29.60 in 10.0 mi NNW 17.3 mph 24.2 mph N/A   Mostly Cloudy
3:18 PM 43.9 °F 35.9 °F 37.6 °F 78% 29.61 in 10.0 mi NW 18.4 mph 24.2 mph N/A   Mostly Cloudy
3:37 PM 45.0 °F 37.4 °F 37.6 °F 75% 29.62 in 10.0 mi NNW 18.4 mph 26.5 mph N/A   Mostly Cloudy
3:58 PM 46.8 °F - 38.3 °F 72% 29.62 in 10.0 mi NNW 16.1 mph 25.3 mph N/A   Mostly Cloudy
4:17 PM 46.9 °F - 38.3 °F 72% 29.63 in 10.0 mi NNW 20.7 mph 26.5 mph N/A   Mostly Cloudy
4:37 PM 45.7 °F 38.6 °F 37.4 °F 73% 29.64 in 10.0 mi NNW 17.3 mph - N/A   Scattered Clouds
4:57 PM 46.8 °F - 37.4 °F 70% 29.64 in 10.0 mi NNW 18.4 mph 23.0 mph N/A   Scattered Clouds
5:17 PM 46.9 °F - 37.6 °F 70% 29.65 in 10.0 mi North 17.3 mph 21.9 mph N/A   Scattered Clouds
5:38 PM 45.9 °F 39.7 °F 37.2 °F 72% 29.67 in 10.0 mi NNW 13.8 mph 19.6 mph N/A   Scattered Clouds
5:58 PM 45.0 °F 37.6 °F 37.0 °F 74% 29.68 in 10.0 mi NNW 17.3 mph 23.0 mph N/A   Scattered Clouds
6:17 PM 44.6 °F 37.2 °F 36.9 °F 74% 29.70 in 10.0 mi NNW 17.3 mph 24.2 mph N/A   Mostly Cloudy
6:38 PM 42.4 °F 34.7 °F 35.8 °F 77% 29.71 in 10.0 mi NNW 16.1 mph - N/A   Overcast
6:58 PM 41.4 °F 33.6 °F 35.4 °F 79% 29.72 in 10.0 mi NNW 15.0 mph 21.9 mph N/A   Overcast
7:18 PM 40.1 °F 32.4 °F 34.7 °F 81% 29.73 in 10.0 mi NNW 13.8 mph 20.7 mph N/A   Overcast
7:37 PM 39.2 °F 31.2 °F 34.0 °F 82% 29.73 in 7.0 mi NNW 13.8 mph 19.6 mph N/A   Overcast
7:58 PM 37.8 °F 30.7 °F 33.3 °F 84% 29.74 in 7.0 mi NNW 10.4 mph 16.1 mph N/A   Overcast
8:18 PM 36.9 °F 29.1 °F 32.9 °F 86% 29.75 in 7.0 mi NNW 11.5 mph 18.4 mph N/A   Overcast
8:38 PM 36.5 °F 28.7 °F 32.5 °F 86% 29.76 in 10.0 mi NNW 11.5 mph - N/A   Overcast
8:58 PM 36.1 °F 28.7 °F 32.9 °F 88% 29.77 in 7.0 mi NNW 10.4 mph - N/A   Overcast
9:17 PM 35.6 °F 26.6 °F 32.4 °F 88% 29.77 in 7.0 mi NW 13.8 mph - N/A   Overcast
9:37 PM 35.1 °F 26.9 °F 32.0 °F 89% 29.79 in 10.0 mi NW 11.5 mph 17.3 mph N/A   Overcast
9:58 PM 34.7 °F 25.9 °F 31.8 °F 89% 29.79 in 7.0 mi NNW 12.7 mph - N/A   Overcast
10:18 PM 34.9 °F 27.1 °F 32.0 °F 89% 29.80 in 7.0 mi NNW 10.4 mph - N/A   Overcast
10:37 PM 34.7 °F 26.4 °F 31.8 °F 89% 29.81 in 10.0 mi NNW 11.5 mph 17.3 mph N/A   Overcast
10:58 PM 34.2 °F 25.2 °F 31.6 °F 90% 29.82 in 7.0 mi NW 12.7 mph - N/A   Overcast
11:18 PM 33.6 °F 26.2 °F 30.9 °F 90% 29.82 in 5.0 mi NW 9.2 mph - N/A   Mostly Cloudy
11:37 PM 32.7 °F 25.7 °F 30.4 °F 91% 29.81 in 5.0 mi NNW 8.1 mph - N/A   Scattered Clouds
11:57 PM 32.0 °F 24.2 °F 30.2 °F 93% 29.81 in 4.0 mi NNW 9.2 mph - N/A   Scattered Clouds